EHI
21 24 29 34 37 33 27 25 28 28 24 19 16 13 11 9 8 7 7 8 8 7 6 6 5 3 2 2 2 2 1 2 3 2 1 0 0 0 0 0 0 1 1
27 28 32 37 41 39 34 31 32 30 25 20 17 14 12 10 8 7 6 6 6 7 7 6 6 5 3 2 1 1 0 1 2 2 1 0 0 0 0 0 0 0 1
31 32 35 40 45 46 43 40 37 33 28 24 20 19 16 13 9 7 5 5 6 8 8 7 6 6 6 4 2 0 0 0 1 2 2 1 0 0 0 0 0 0 0
33 34 36 40 46 48 47 45 41 35 31 27 23 21 19 15 11 9 7 6 7 10 9 8 7 6 6 5 3 1 0 0 0 1 2 2 1 1 1 0 0 0 0
34 35 36 39 44 46 45 44 41 36 32 29 23 21 19 15 13 12 10 8 7 8 10 9 7 7 6 6 4 2 1 0 0 0 1 2 2 2 2 1 0 0 0
32 33 34 35 40 43 43 42 39 34 32 29 24 20 18 15 13 12 10 7 6 6 8 8 7 7 6 6 5 4 2 1 1 1 2 3 3 3 2 1 0 0 0
28 30 31 31 36 42 44 43 40 35 32 29 24 19 16 14 12 10 8 6 6 6 7 8 7 7 7 7 7 6 3 2 2 3 3 3 3 3 3 2 0 0 0
23 25 26 25 30 39 44 42 38 33 29 27 22 17 14 13 12 10 7 5 5 6 8 9 8 8 7 6 7 6 4 3 3 3 3 3 3 3 3 2 1 1 0
19 20 20 20 23 30 35 35 32 27 25 24 21 17 15 14 13 10 7 5 4 6 8 10 10 9 8 6 6 5 4 3 3 3 3 3 3 3 2 1 2 1 1
16 17 18 18 18 20 23 25 26 25 23 23 21 19 17 15 13 12 9 5 3 5 8 10 10 10 9 8 7 5 4 3 3 3 3 3 3 3 1 0 1 1 1
15 16 17 17 16 14 15 20 24 24 23 23 23 21 18 15 14 13 10 7 4 5 7 10 11 10 10 10 9 7 5 4 3 3 3 3 3 3 2 1 1 2 2
13 15 16 16 15 13 13 17 22 23 23 24 24 23 20 18 16 13 11 9 7 6 7 9 9 8 8 10 10 7 5 3 3 3 3 3 2 2 2 2 3 3 3
12 14 16 15 14 13 12 14 20 23 24 24 26 25 22 20 18 15 12 11 9 8 7 7 7 6 6 9 9 6 4 2 2 3 3 2 1 1 2 3 3 3 3
12 12 12 12 12 12 11 14 19 24 25 26 27 26 22 20 18 15 13 11 9 7 7 7 6 6 7 8 8 6 3 1 1 1 2 2 2 2 3 3 3 3 3
9 8 7 8 10 11 12 13 17 22 25 26 27 26 22 19 17 14 12 11 10 8 8 8 7 6 7 8 9 8 5 2 1 1 1 2 3 3 3 3 3 3 3
6 6 5 6 8 10 11 13 14 18 23 24 24 24 22 19 16 13 12 12 12 11 10 9 8 6 5 7 8 8 7 5 4 2 2 3 3 3 3 2 1 1 2
5 6 5 5 4 6 9 12 13 15 19 22 22 21 20 18 16 14 13 12 12 12 10 9 8 5 4 4 5 6 7 6 5 5 4 3 3 3 2 1 0 0 1
3 4 3 2 1 3 6 9 11 12 15 18 20 19 17 16 15 14 13 12 11 10 9 7 6 4 3 1 2 4 5 5 4 5 5 4 3 3 1 0 0 0 0
2 2 1 0 1 3 5 7 9 11 13 15 16 15 15 16 15 14 14 14 12 10 8 7 5 4 3 1 0 2 4 4 4 4 5 5 3 2 1 0 0 0 0
2 1 0 0 1 2 3 5 8 11 12 13 13 13 14 16 16 15 15 15 13 10 8 8 6 5 4 2 1 2 5 5 4 3 4 4 3 1 0 0 0 0 0
1 0 0 0 1 1 2 5 7 8 10 11 11 11 12 15 15 15 15 15 13 9 8 8 8 6 5 3 1 1 4 6 5 5 4 3 2 1 0 0 0 0 0
1 1 0 0 1 2 4 6 6 6 7 9 9 10 11 13 14 14 13 13 11 9 9 10 9 8 6 4 1 1 3 5 7 7 5 3 1 0 0 0 0 0 0
3 2 1 1 2 3 4 6 5 5 6 8 9 10 11 12 12 12 11 11 10 10 10 10 10 9 8 6 3 1 1 3 6 6 3 1 0 0 0 0 0 0 0
3 3 2 3 3 3 4 5 5 5 6 8 9 9 10 11 11 10 9 9 9 9 9 10 9 8 7 6 3 1 1 2 3 3 1 0 0 0 0 0 0 0 0
1 1 2 2 2 2 2 3 4 4 6 7 8 8 8 11 11 10 8 6 6 6 7 7 7 6 5 3 2 2 2 2 2 1 0 0 0 0 0 0 0 0 0
0 0 1 1 1 1 1 1 3 4 4 6 7 7 9 11 12 10 6 4 4 4 5 5 5 4 3 2 1 2 2 2 1 0 0 0 0 0 0 0 0 0 0
Wind_Speed
7 7 8 10 9 9 8 8 8 6 5 4 4 4 3 2 2 2 3 3 3 3 3 2 2 2 2 2 2 2 2 1 1 2 2 3 2 1 1 0 0 0 0
6 6 7 9 10 10 9 8 8 7 6 4 3 3 3 2 2 1 2 2 3 3 3 3 2 2 2 2 2 2 1 1 1 1 1 2 4 3 2 1 1 0 0
10 9 8 8 9 9 9 9 8 8 6 5 4 4 3 2 2 1 1 1 3 3 3 3 3 2 2 2 1 1 2 0 1 1 2 2 1 3 3 2 1 1 1
10 9 9 9 9 9 8 8 8 7 6 6 6 6 5 3 2 2 2 1 2 3 3 3 3 2 2 2 1 1 1 2 0 1 0 1 3 1 2 3 2 1 1
9 10 11 11 10 9 9 8 7 6 6 6 7 7 5 3 2 2 2 1 1 2 2 3 3 2 2 2 2 2 2 1 1 0 0 0 1 1 2 2 3 3 2
7 8 8 9 8 8 7 7 7 6 5 6 6 7 6 5 5 4 3 2 1 1 1 2 2 2 2 2 2 2 2 1 1 1 1 1 1 1 1 1 2 2 3
7 7 7 8 9 9 8 7 8 6 6 6 5 6 6 7 6 5 4 3 2 1 1 2 2 2 2 2 2 2 1 1 1 1 1 1 1 2 2 1 1 2 2
5 7 7 7 8 9 9 8 8 7 6 6 5 5 5 4 4 4 4 4 3 3 2 2 2 2 2 2 2 1 1 1 1 1 1 0 1 1 2 2 2 1 2
5 6 6 5 5 8 9 9 9 7 6 6 5 6 5 4 4 4 4 3 3 3 2 2 2 2 2 2 2 1 1 1 1 1 1 1 1 1 1 1 2 2 1
5 4 4 4 4 5 7 7 7 7 6 6 6 5 5 5 4 4 4 4 3 3 3 3 2 2 2 1 1 1 1 1 1 1 1 1 1 1 1 1 1 2 2
5 4 3 4 4 3 5 6 6 5 5 5 5 5 5 5 5 4 4 4 4 3 3 3 3 3 2 2 1 1 1 1 1 1 1 2 1 1 1 1 1 1 2
4 5 5 4 4 3 4 5 6 6 6 6 5 4 4 5 5 5 4 4 4 4 4 3 3 3 3 3 3 2 2 2 2 2 1 2 1 1 1 1 1 1 2
3 3 3 3 4 3 3 4 5 6 5 5 5 4 4 4 5 5 4 4 4 4 3 4 4 4 3 3 3 3 3 3 3 3 3 3 1 2 1 1 1 1 1
3 3 2 2 2 3 3 3 4 5 5 5 5 5 5 5 5 4 4 4 4 4 4 4 4 4 4 4 3 3 3 3 3 3 3 3 3 3 3 2 2 1 1
2 2 2 1 1 2 2 3 3 4 5 5 5 5 4 4 4 4 4 4 4 4 4 3 3 4 4 4 4 3 3 3 3 3 3 4 4 5 4 2 2 2 1
2 3 2 0 1 2 3 3 3 4 5 5 5 5 4 4 4 4 4 4 4 3 3 4 4 4 4 4 5 4 3 3 3 4 3 3 3 3 3 4 4 4 3
2 2 1 1 2 2 3 4 4 3 4 5 5 5 5 5 5 4 4 4 4 3 3 3 4 4 4 6 6 6 3 4 4 4 3 3 2 2 2 2 3 3 5
2 1 1 1 1 1 1 2 3 3 3 3 4 4 5 5 5 4 4 4 4 4 4 4 4 4 4 6 6 5 3 3 3 4 4 4 3 3 3 2 2 3 3
1 1 1 0 1 1 1 1 2 2 2 2 3 4 4 5 5 5 5 4 3 3 3 4 4 4 4 5 5 4 2 2 3 4 3 4 4 5 5 3 2 3 3
1 1 1 2 2 1 1 2 2 2 2 2 3 3 4 4 5 5 5 3 3 4 3 3 3 4 3 4 5 5 2 2 2 2 3 4 4 5 5 4 3 3 4
1 2 2 2 1 1 1 1 1 2 2 2 2 2 3 4 4 4 3 3 3 2 2 2 2 2 3 4 4 5 3 3 2 2 2 2 3 3 4 4 4 6 4
2 2 2 1 1 1 1 1 1 2 1 1 1 1 2 2 2 2 2 2 3 2 2 2 2 2 2 3 3 4 4 3 3 3 2 2 3 3 3 3 3 4 2
2 2 2 1 1 0 1 0 2 1 1 0 1 1 2 2 2 2 2 2 2 2 2 2 2 2 2 2 4 5 5 4 2 2 3 3 3 2 2 3 3 2 1
1 1 2 1 1 1 1 2 2 1 2 1 2 2 2 2 1 1 2 2 3 3 3 3 3 3 2 2 2 2 2 3 2 2 2 2 2 2 2 2 1 1 2
1 1 2 1 1 1 1 2 2 1 1 2 2 2 2 2 2 1 2 3 4 5 5 4 3 3 3 5 5 3 3 3 2 1 0 1 1 1 1 1 2 1 1
1 1 1 1 1 1 1 2 2 1 2 2 2 2 1 1 2 2 1 1 2 4 5 4 4 3 4 4 5 5 5 4 4 3 1 1 2 2 2 2 2 2 3
Wind_Direction
169 151 151 146 142 143 143 144 140 145 143 146 143 138 142 140 126 120 124 126 124 121 115 115 107 94 96 101 93 93 68 44 66 60 11 349 354 1 310 296 43 20 341
149 147 148 149 151 151 149 148 148 148 153 156 152 145 141 140 141 132 116 127 129 130 129 119 114 102 98 81 82 98 96 30 59 106 67 360 350 347 350 2 34 325 17
165 162 153 153 153 154 155 156 158 156 155 143 127 116 97 86 84 96 123 135 133 132 132 134 125 120 116 118 111 119 119 112 352 106 139 140 243 314 330 338 346 355 17
167 167 160 157 160 164 157 153 157 157 154 147 144 146 146 151 168 166 163 146 127 135 136 134 129 126 127 134 134 111 106 115 25 328 331 174 171 169 316 325 330 331 278
172 172 167 165 165 164 157 153 151 151 151 152 153 152 146 148 139 135 133 135 130 137 140 139 132 130 133 135 119 102 91 109 142 187 274 31 45 133 161 289 319 330 307
168 169 161 159 162 162 155 151 150 155 156 155 154 155 151 147 140 144 151 153 148 145 150 142 147 150 145 141 140 128 123 137 142 149 147 155 164 203 166 219 284 300 298
158 146 146 158 165 164 161 159 157 159 161 159 160 159 158 156 159 163 165 162 158 176 203 169 169 166 164 160 149 134 145 157 148 171 213 196 203 187 170 170 247 288 302
155 152 152 157 167 168 163 162 165 164 164 161 167 164 157 159 164 166 164 170 179 191 191 178 182 183 178 169 153 151 186 166 169 194 205 238 250 185 173 173 175 305 319
137 137 142 145 155 167 169 168 169 168 171 172 171 166 161 160 163 163 161 169 176 180 168 170 174 184 178 165 151 171 206 179 193 206 207 226 256 215 204 179 170 171 251
118 120 135 139 146 170 173 169 170 175 172 170 170 165 168 168 165 161 166 176 184 182 173 179 182 184 181 175 161 177 215 189 233 225 217 245 253 252 221 206 201 181 187
127 125 133 145 139 144 169 170 166 168 170 172 172 164 171 171 169 175 180 181 184 187 184 185 186 191 192 184 173 195 203 213 247 259 231 254 250 250 255 222 198 199 180
135 145 149 137 128 138 169 175 172 173 178 176 172 170 175 170 175 185 186 179 183 191 191 187 190 196 193 187 186 206 216 216 232 244 234 250 251 255 258 226 224 227 207
116 117 128 135 143 153 160 176 181 178 179 174 170 169 179 182 187 192 189 182 183 188 191 188 192 199 197 194 199 206 218 226 230 226 222 234 221 252 254 240 238 242 241
130 129 137 152 158 157 163 164 178 175 173 173 171 179 191 193 191 188 186 188 187 191 196 201 203 199 197 198 202 210 215 228 239 237 228 226 217 226 230 233 234 229 232
126 131 141 167 173 164 166 163 164 170 175 177 181 193 195 188 180 183 188 188 190 196 191 195 209 202 199 201 199 207 212 220 242 253 242 234 228 224 218 219 218 207 211
132 117 107 132 221 199 184 170 171 172 171 177 187 189 185 183 182 185 186 187 193 198 190 199 206 210 215 209 209 206 212 219 228 245 252 248 236 241 240 241 230 210 201
141 133 127 204 253 224 191 180 179 171 169 179 184 187 182 186 191 190 187 195 200 199 202 200 197 211 223 217 223 223 210 212 220 227 235 254 256 246 241 258 262 248 231
112 90 37 341 296 244 215 184 164 162 163 175 182 184 182 187 188 186 198 210 205 199 200 203 200 207 228 220 225 229 217 221 229 227 224 230 250 240 218 224 246 260 256
141 119 79 49 353 329 198 149 146 141 154 182 195 194 189 195 189 193 204 205 198 202 205 200 201 205 228 219 217 209 206 227 245 244 238 233 238 242 225 203 229 267 281
102 109 90 66 52 359 103 120 136 137 182 211 210 198 190 192 197 200 206 203 193 202 199 205 206 201 220 226 216 200 192 223 252 264 254 246 245 244 223 203 206 238 264
118 117 98 80 73 359 81 131 146 198 219 209 203 206 200 198 197 196 198 193 187 188 190 197 217 215 224 230 216 199 191 207 229 247 262 268 267 254 239 221 212 227 231
116 115 102 58 344 41 71 107 229 239 222 178 192 211 212 211 198 190 194 182 170 174 189 193 225 245 234 225 221 205 210 203 204 235 246 252 255 258 259 245 239 235 217
152 140 142 156 323 342 120 205 253 233 178 182 240 225 212 214 192 188 195 182 166 171 192 192 211 237 247 239 229 220 225 227 217 233 244 253 257 271 264 259 264 239 184
166 152 132 124 308 291 263 258 257 210 172 200 231 223 198 209 213 198 192 181 181 182 189 196 211 225 235 240 240 237 235 243 247 254 264 267 260 265 266 282 295 234 208
191 153 155 182 245 262 272 287 266 196 200 222 225 224 209 198 195 201 213 203 203 195 193 203 201 205 228 241 228 207 215 214 215 177 49 16 346 308 302 297 288 269 248
157 163 192 206 254 273 287 298 281 202 201 231 235 222 215 202 187 180 297 308 231 216 212 210 203 219 232 245 233 227 222 209 177 149 177 215 227 234 246 260 272 266 254